Regional Weather Roundup
Issued by NWS Newport/Morehead, NC

Current Version | Previous Version | Text Only | Print | Product List | Glossary On
Versions: 1 2 3 4 5 6 7 8 9 10 11 12 13 14 15 16 17 18 19 20 21 22 23 24 25 26 27 28 29 30 31 32 33 34 35 36 37 38 39 40 41 42 43 44 45 46 47 48 49 50
000
ASUS42 KMHX 291812
RWRMHX
WEATHER ROUNDUP FOR EASTERN NORTH CAROLINA
NATIONAL WEATHER SERVICE NEWPORT/MOREHEAD CITY NC
200 PM EDT WED JUL 29 2015

NOTE: "FAIR" INDICATES FEW OR NO CLOUDS BELOW 12,000 FEET
WITH NO SIGNIFICANT WEATHER AND/OR OBSTRUCTIONS TO VISIBILITY

NCZ015>017-031-032-045>047-102-103-291900-
NORTH COAST

CITY           SKY/WX    TMP DP  RH WIND       PRES   REMARKS
EDENTON          N/A     85  71  62 SE7       30.01F
ELIZABETH CITY SUNNY     87  68  52 SE8       30.02F
KITTY HAWK     CLEAR     90  70  51 E7        30.02S
MANTEO         SUNNY     84  70  63 SE8       30.03S

$$

NCZ045>047-081-094-103-104-291900-
CENTRAL COAST

CITY           SKY/WX    TMP DP  RH WIND       PRES   REMARKS
FRISCO         MOSUNNY   88  71  57 SE14      30.02R
SWANQUARTER      N/A     88 N/A N/A E9        29.97S

$$

NCZ095-097-098-100-101-291900-
SOUTHERN COAST

CITY           SKY/WX    TMP DP  RH WIND       PRES   REMARKS
BEAUFORT       SUNNY     86  72  62 E7        30.00S
CEDAR ISLAND     N/A     86 N/A N/A E8G15     30.06S
JACKSONVILLE   SUNNY     89  72  56 VRB3      29.98F
PINEY ISLAND   CLEAR    N/A N/A N/A MISG      30.01S
WILMINGTON     SUNNY     88  66  48 E10       29.99F


$$

NCZ011>013-027>030-043-044-078>080-089-090>093-098-291900-
COASTAL PLAIN

CITY           SKY/WX    TMP DP  RH WIND       PRES   REMARKS
AHOSKIE        SUNNY     87  70  56 E3        30.01F
CLINTON        SUNNY     90  72  56 N3        30.00F
ELIZABETHTOWN  MOSUNNY   92  67  44 SE6       29.99S
GOLDSBORO      NOT AVBL
GREENVILLE     MOSUNNY   90  70  51 CALM      30.02S
HAVELOCK       SUNNY     88  73  61 NE13      30.01S
KENANSVILLE    SUNNY     87  68  52 CALM      30.01F
KINSTON        MOSUNNY   90  70  51 N5        30.01S
NEW BERN       SUNNY     90  67  46 E7        30.01F
RICHLANDS      MOSUNNY   90  68  48 E3        29.99F
ROCKY MOUNT    PTSUNNY   90  69  50 VRB3      30.01F
WASHINGTON     MOSUNNY   87  71  58 E6        30.01S
WHITEVILLE     SUNNY     90  70  51 E6        29.98F

$$

AMZ130-135-150-152-154-156-158-170-250-252-270-ANZ085-086-088-633-658-670-291900-
MARINE OBSERVATIONS

STATION/POSITION TIME  TEMP    WIND        PRES    WAVE   SWELL
                       AIR SEA DIR/SP/G            HT/PER HT/PER
                 (UTC) (F)     (DEG/KT/KT) (MB)    (FT/S) (FT/S)
CHESAPEAKE LIGHT 1800   80     180/  8/  9 1017.4
64 E VA BEACH    1750   81 82  150/  4/  6 1016.8    3/ 7   2/ 7
DUCK             1700   82 67  120/  7/  8 1016.0
2 E DUCK         1711      80                N/A     2/ 9
OREGON INLET     1700   83 83  100/  6/  9 1016.7
13E OREGON INLT  1700      81                N/A     3/ 7
HATTERAS CG      1700   83 82  110/  9/ 13 1016.0
DIAMOND BUOY     NOT AVBL
CAPE LOOKOUT     1800   82      60/ 13/ 14 1015.6
BEAUFORT LAB     1700   83 82  100/  8/ 13 1015.2
30 SE NEW RVR IN NOT AVBL
27 SE WRIGHTSVLE 1700   79 82   60/ 12/ 14   N/A
5 SE WRIGHTSVLE  1708   81 82   70/ 12/ 14 1016.0
225 S CAPE HAT   1750   83 82  210/ 12/ 14 1015.4    5/ 6   3/10
41 SE CHARLESTON 1750   83 85   20/ 14/ 16 1014.0    3/ 7   2/ 7

$$


USA.gov is the U.S. government's official web portal to all federal, state and local government web resources and services.